Location: Holyhead Bay
(53.3667°N, 4.6667°W)
Time: 19:15:25
(UTC+00:00)

CSL-04 DEB - Pass Details

Date: 24 November 2020
Orbit: 546 x 627 km, 98.8° (Epoch: 17 January)

Event Time Altitude Azimuth Distance (km) Brightness Sun altitude
Exits shadow 17:56:02 - 17° (NNE) 1,994 6.9 -15.1°
Reaches altitude 10° 17:56:19 10° 17° (NNE) 1,880 6.7 -15.2°
Maximum altitude 18:00:23 84° 106° (ESE) 589 4.3 -15.8°
Drops below altitude 10° 18:04:32 10° 195° (SSW) 1,912 7.4 -16.4°
Sets 18:06:43 0° 196° (SSW) 2,823 8.3 -16.7°
